Tracking 29933 objects as of 2-Dec-2024
HD Live streaming from Space Station
objects crossing your sky now

MOZHAYETS 4

Track MOZHAYETS 4 now!
10-day predictions
MOZHAYETS 4 is classified as:


NORAD ID: 27939
Int'l Code: 2003-042A
Perigee: 656.6 km
Apogee: 671.6 km
Inclination: 98.3 °
Period: 97.9 minutes
Semi major axis: 7035 km
RCS: 0.7646 m2 (medium)
Launch date: September 27, 2003
Source: Commonwealth of Independent States (former USSR) (CIS)
Launch site: PLESETSK MISSILE AND SPACE COMPLEX (PKMTR)

Uplink (MHz):
Downlink (MHz): 432.098
Beacon (MHz): 432.098/435.352
Mode: CW
Call sign:
Status: Unknown

Your satellite tracking list
Your tracking list is empty




NASA's NSSDC Master Catalog

Two Line Element Set (TLE):
1 27939U 03042A   24337.55340743  .00003625  00000-0  59481-3 0  9995
2 27939  98.3072 136.7882 0010682 246.5281 203.4293 14.71296513132896
Source of the keplerian elements: Caltech